When you browse on this site, cookies collect data to enhance your experience and personalize the content and advertising you see.
Visit our Privacy Policy to learn more. By continuing to use the site, you agree to this use of cookies and data.
  • In Hungary
  • List of Countries
  • For 7 days
  • Water Temperature
  • Weather Map
  • News
  • Weather Widgets
  • user-avatar
    Login

    Hourly Weather Vahnovo

    Today, 23 January, Thursday

    Time Temperature Precipitation Wind Pressure Humidity
    00:00 -6°C° 0 mm 5 mps 732 mmHg 82%
    01:00 -6°C° 0 mm 6 mps 733 mmHg 81%
    02:00 -6°C° 0 mm 6 mps 734 mmHg 81%
    03:00 -8°C° 0 mm 6 mps 734 mmHg 81%
    04:00 -7°C° 0 mm 5 mps 734 mmHg 81%
    05:00 -8°C° 0 mm 5 mps 735 mmHg 80%
    06:00 -8°C° 0.1 mm 5 mps 736 mmHg 81%
    07:00 -8°C° 0.1 mm 5 mps 736 mmHg 81%
    08:00 -8°C° 0.1 mm 5 mps 737 mmHg 81%
    09:00 -9°C° 0 mm 6 mps 738 mmHg 78%
    10:00 -9°C° 0 mm 6 mps 738 mmHg 74%
    11:00 -8°C° 0 mm 6 mps 738 mmHg 71%
    12:00 -8°C° 0 mm 6 mps 739 mmHg 69%
    13:00 -8°C° 0 mm 6 mps 739 mmHg 68%
    14:00 -8°C° 0 mm 6 mps 739 mmHg 66%
    15:00 -7°C° 0 mm 5 mps 739 mmHg 70%
    16:00 -7°C° 0 mm 5 mps 740 mmHg 73%
    17:00 -7°C° 0 mm 5 mps 740 mmHg 77%
    18:00 -7°C° 0 mm 4 mps 740 mmHg 79%
    19:00 -6°C° 0 mm 3 mps 740 mmHg 80%
    20:00 -6°C° 0 mm 3 mps 740 mmHg 82%
    21:00 -6°C° 0 mm 3 mps 740 mmHg 82%
    22:00 -6°C° 0 mm 3 mps 740 mmHg 82%
    23:00 -6°C° 0 mm 3 mps 740 mmHg 83%

    Tomorrow, 24 January, Friday

    Time Temperature Precipitation Wind Pressure Humidity
    00:00 -6°C° 0 mm 3 mps 740 mmHg 84%
    01:00 -6°C° 0 mm 3 mps 740 mmHg 86%
    02:00 -7°C° 0 mm 4 mps 739 mmHg 88%
    03:00 -5°C° 0 mm 4 mps 738 mmHg 88%
    04:00 -4°C° 0 mm 4 mps 738 mmHg 89%
    05:00 -5°C° 0 mm 5 mps 737 mmHg 89%
    06:00 -5°C° 0 mm 5 mps 736 mmHg 90%
    07:00 -5°C° 0 mm 5 mps 735 mmHg 91%
    08:00 -4°C° 0 mm 6 mps 735 mmHg 93%
    09:00 -4°C° 0.2 mm 6 mps 734 mmHg 92%
    10:00 -3°C° 0.2 mm 6 mps 733 mmHg 92%
    11:00 -2°C° 0.2 mm 6 mps 733 mmHg 91%
    12:00 -2°C° 0 mm 6 mps 732 mmHg 93%
    13:00 -1°C° 0 mm 6 mps 732 mmHg 94%
    14:00 0°C° 0 mm 5 mps 731 mmHg 96%
    15:00 +1°C° 0.2 mm 6 mps 731 mmHg 96%
    16:00 +1°C° 0.2 mm 6 mps 730 mmHg 95%
    17:00 +1°C° 0.2 mm 6 mps 730 mmHg 95%
    18:00 +1°C° 0.1 mm 6 mps 730 mmHg 94%
    19:00 +1°C° 0.1 mm 5 mps 730 mmHg 94%
    20:00 0°C° 0.1 mm 5 mps 731 mmHg 93%
    21:00 0°C° 0.2 mm 4 mps 731 mmHg 93%
    22:00 -1°C° 0.2 mm 4 mps 731 mmHg 94%
    23:00 -1°C° 0.2 mm 4 mps 731 mmHg 94%

    Day after tomorrow, 25 January, Saturday

    Time Temperature Precipitation Wind Pressure Humidity
    00:00 -1°C° 0.2 mm 4 mps 731 mmHg 95%
    01:00 -1°C° 0.2 mm 4 mps 731 mmHg 95%
    02:00 -2°C° 0.2 mm 4 mps 731 mmHg 95%
    03:00 -2°C° 0.1 mm 4 mps 730 mmHg 92%
    04:00 -2°C° 0.1 mm 4 mps 730 mmHg 90%
    05:00 -2°C° 0.1 mm 5 mps 730 mmHg 87%
    06:00 -2°C° 0 mm 5 mps 730 mmHg 86%
    07:00 -2°C° 0 mm 5 mps 730 mmHg 84%
    08:00 -2°C° 0 mm 5 mps 730 mmHg 83%
    09:00 -3°C° 0 mm 6 mps 730 mmHg 81%
    10:00 -2°C° 0 mm 6 mps 730 mmHg 80%
    11:00 -2°C° 0 mm 6 mps 729 mmHg 78%
    12:00 -2°C° 0.1 mm 6 mps 729 mmHg 79%
    13:00 -3°C° 0.1 mm 7 mps 729 mmHg 79%
    14:00 -3°C° 0.1 mm 7 mps 729 mmHg 80%
    15:00 -3°C° 0.4 mm 7 mps 729 mmHg 79%
    16:00 -3°C° 0.4 mm 6 mps 730 mmHg 78%
    17:00 -4°C° 0.4 mm 6 mps 730 mmHg 77%
    18:00 -4°C° 0 mm 6 mps 730 mmHg 76%
    19:00 -5°C° 0 mm 6 mps 731 mmHg 76%
    20:00 -5°C° 0 mm 6 mps 732 mmHg 75%
    21:00 -5°C° 0 mm 6 mps 732 mmHg 77%
    22:00 -5°C° 0 mm 6 mps 733 mmHg 78%
    23:00 -5°C° 0 mm 6 mps 733 mmHg 79%

    26 January, Sunday

    Time Temperature Precipitation Wind Pressure Humidity
    00:00 -6°C° 0 mm 6 mps 734 mmHg 79%
    01:00 -6°C° 0 mm 5 mps 735 mmHg 79%
    02:00 -6°C° 0 mm 5 mps 735 mmHg 79%
    03:00 -6°C° 0 mm 5 mps 736 mmHg 79%
    04:00 -6°C° 0 mm 5 mps 737 mmHg 80%
    05:00 -6°C° 0 mm 5 mps 737 mmHg 80%
    06:00 -6°C° 0 mm 5 mps 738 mmHg 81%
    07:00 -6°C° 0 mm 5 mps 739 mmHg 82%
    08:00 -7°C° 0 mm 5 mps 740 mmHg 82%
    09:00 -5°C° 0 mm 4 mps 741 mmHg 80%
    10:00 -5°C° 0 mm 4 mps 741 mmHg 78%
    11:00 -4°C° 0 mm 4 mps 742 mmHg 75%
    12:00 -4°C° 0 mm 4 mps 742 mmHg 76%
    13:00 -4°C° 0 mm 3 mps 743 mmHg 76%
    14:00 -4°C° 0 mm 3 mps 743 mmHg 76%
    15:00 -4°C° 0 mm 3 mps 743 mmHg 79%
    16:00 -5°C° 0 mm 3 mps 744 mmHg 82%
    17:00 -5°C° 0 mm 2 mps 744 mmHg 85%
    18:00 -5°C° 0 mm 2 mps 744 mmHg 85%
    19:00 -5°C° 0 mm 2 mps 744 mmHg 85%
    20:00 -5°C° 0 mm 2 mps 744 mmHg 85%
    21:00 -5°C° 0 mm 2 mps 744 mmHg 85%
    22:00 -5°C° 0 mm 3 mps 744 mmHg 84%
    23:00 -5°C° 0 mm 3 mps 744 mmHg 83%

    27 January, Monday

    Time Temperature Precipitation Wind Pressure Humidity
    00:00 -5°C° 0.1 mm 3 mps 744 mmHg 87%
    01:00 -4°C° 0.1 mm 3 mps 743 mmHg 92%
    02:00 -4°C° 0.1 mm 4 mps 743 mmHg 96%
    03:00 -4°C° 0.3 mm 4 mps 743 mmHg 96%
    04:00 -3°C° 0.3 mm 4 mps 743 mmHg 96%
    05:00 -3°C° 0.3 mm 4 mps 742 mmHg 96%
    06:00 -3°C° 0.2 mm 4 mps 742 mmHg 96%
    07:00 -3°C° 0.2 mm 4 mps 742 mmHg 96%
    08:00 -3°C° 0.2 mm 4 mps 742 mmHg 96%
    09:00 -2°C° 0.1 mm 4 mps 742 mmHg 95%
    10:00 -2°C° 0.1 mm 4 mps 741 mmHg 93%
    11:00 -1°C° 0.1 mm 4 mps 741 mmHg 92%
    12:00 -1°C° 0 mm 4 mps 741 mmHg 93%
    13:00 -2°C° 0 mm 4 mps 741 mmHg 94%
    14:00 -2°C° 0 mm 4 mps 740 mmHg 95%
    15:00 -2°C° 0.2 mm 4 mps 740 mmHg 96%
    16:00 -2°C° 0.2 mm 4 mps 740 mmHg 96%
    17:00 -2°C° 0.2 mm 4 mps 740 mmHg 97%
    18:00 -2°C° 0.3 mm 4 mps 739 mmHg 97%
    19:00 -2°C° 0.3 mm 4 mps 739 mmHg 97%
    20:00 -2°C° 0.3 mm 4 mps 738 mmHg 97%
    21:00 -1°C° 0.3 mm 3 mps 738 mmHg 97%
    22:00 -1°C° 0.3 mm 3 mps 737 mmHg 98%
    23:00 -1°C° 0.3 mm 2 mps 737 mmHg 98%

    28 January, Tuesday

    Time Temperature Precipitation Wind Pressure Humidity
    00:00 -1°C° 0.3 mm 2 mps 737 mmHg 98%
    01:00 -1°C° 0.3 mm 2 mps 736 mmHg 98%
    02:00 -1°C° 0.3 mm 2 mps 736 mmHg 98%
    03:00 -1°C° 0.3 mm 2 mps 735 mmHg 98%
    04:00 -1°C° 0.3 mm 3 mps 735 mmHg 98%
    05:00 -1°C° 0.3 mm 3 mps 735 mmHg 98%
    06:00 -1°C° 0.2 mm 3 mps 735 mmHg 98%
    07:00 -1°C° 0.2 mm 3 mps 735 mmHg 98%
    08:00 -1°C° 0.2 mm 3 mps 735 mmHg 98%
    09:00 -1°C° 0.1 mm 3 mps 735 mmHg 98%
    10:00 -1°C° 0.1 mm 3 mps 736 mmHg 98%
    11:00 0°C° 0.1 mm 3 mps 736 mmHg 97%
    12:00 0°C° 0 mm 3 mps 736 mmHg 97%
    13:00 0°C° 0 mm 3 mps 737 mmHg 97%
    14:00 0°C° 0 mm 3 mps 737 mmHg 97%
    15:00 -1°C° 0 mm 3 mps 737 mmHg 95%
    16:00 -1°C° 0 mm 3 mps 738 mmHg 93%
    17:00 -2°C° 0 mm 3 mps 738 mmHg 92%
    18:00 -2°C° 0 mm 2 mps 739 mmHg 92%
    19:00 -3°C° 0 mm 2 mps 739 mmHg 92%
    20:00 -4°C° 0 mm 2 mps 739 mmHg 93%
    21:00 -4°C° 0 mm 2 mps 739 mmHg 92%
    22:00 -5°C° 0 mm 3 mps 738 mmHg 92%
    23:00 -5°C° 0 mm 3 mps 738 mmHg 92%
    Show more